| time (UTC) | temp C | wind direction | speed KPH | gust KPH | rain 1hr cm | rain 24hr cm | rain mn cm | humidity % | barometer mb |
| 20260505124534 | 13 | 347 | 3.2 | 12.9 | 0.00 | 0.00 | 0.00 | 61 | 1014.2 |
| 20260505123030 | 13 | 96 | 4.8 | 16.1 | 0.00 | 0.00 | 0.00 | 60 | 1014.2 |
| 20260505121531 | 12 | 330 | 4.8 | 17.7 | 0.00 | 0.00 | 0.00 | 60 | 1014.2 |
| 20260505120048 | 12 | 273 | 4.8 | 20.9 | 0.00 | 0.00 | 0.00 | 60 | 1014.3 |
| 20260505114517 | 12 | 249 | 8.0 | 20.9 | 0.00 | 0.00 | 0.00 | 60 | 1014.4 |
| 20260505113013 | 11 | 303 | 6.4 | 17.7 | 0.00 | 0.00 | 0.00 | 60 | 1014.6 |
| 20260505111509 | 11 | 321 | 9.7 | 17.7 | 0.00 | 0.00 | 0.00 | 59 | 1014.6 |
| 20260505101553 | 11 | 291 | 11.3 | 25.7 | 0.00 | 0.00 | 0.00 | 61 | 1014.7 |
| 20260505100047 | 11 | 337 | 12.9 | 29.0 | 0.00 | 0.00 | 0.00 | 61 | 1014.7 |
| 20260505094542 | 12 | 282 | 8.0 | 20.9 | 0.00 | 0.00 | 0.00 | 56 | 1014.7 |
| 20260505093041 | 12 | 159 | 4.8 | 20.9 | 0.00 | 0.00 | 0.00 | 55 | 1014.8 |
| 20260505091533 | 12 | 331 | 8.0 | 20.9 | 0.00 | 0.00 | 0.00 | 54 | 1014.9 |
| 20260505090039 | 11 | 279 | 9.7 | 17.7 | 0.00 | 0.00 | 0.00 | 37 | 1014.8 |
| 20260505084525 | 11 | 307 | 3.2 | 14.5 | 0.00 | 0.00 | 0.00 | 32 | 1014.9 |
| 20260505083020 | 11 | 280 | 6.4 | 14.5 | 0.00 | 0.00 | 0.00 | 33 | 1014.9 |
| 20260505081516 | 11 | 331 | 6.4 | 17.7 | 0.00 | 0.00 | 0.00 | 29 | 1014.9 |
| 20260505080011 | 10 | 281 | 8.0 | 16.1 | 0.00 | 0.00 | 0.00 | 17 | 1015.0 |
| 20260505074508 | 10 | 356 | 1.6 | 11.3 | 0.00 | 0.00 | 0.00 | 7 | 1015.0 |
| 20260505073004 | 10 | 311 | 1.6 | 9.7 | 0.00 | 0.00 | 0.00 | 3 | 1014.9 |
| 20260505071602 | 9 | 349 | 6.4 | 14.5 | 0.00 | 0.00 | 0.00 | 1 | 1014.9 |
| 20260505070055 | 8 | 286 | 3.2 | 12.9 | 0.00 | 0.00 | 0.00 | 1 | 1015.0 |
| 20260505064550 | 8 | 299 | 4.8 | 14.5 | 0.00 | 0.00 | 0.00 | 1 | 1014.9 |
| 20260505063046 | 8 | 303 | 1.6 | 9.7 | 0.00 | 0.00 | 0.00 | 1 | 1014.9 |
| 20260505061550 | 7 | 292 | 4.8 | 12.9 | 0.00 | 0.00 | 0.00 | 1 | 1014.9 |
| 20260505060037 | 7 | 316 | 6.4 | 14.5 | 0.00 | 0.00 | 0.00 | 1 | 1014.8 |
| 20260505054556 | 7 | 298 | 4.8 | 9.7 | 0.00 | 0.00 | 0.00 | 1 | 1014.9 |
| 20260505053032 | 7 | 284 | 1.6 | 9.7 | 0.00 | 0.00 | 0.00 | 1 | 1015.0 |
| 20260505051525 | 7 | 293 | 3.2 | 9.7 | 0.00 | 0.00 | 0.00 | 1 | 1014.9 |
| 20260505041511 | 6 | 284 | 0.0 | 3.2 | 0.00 | 0.00 | 0.00 | 1 | 1014.6 |
| 20260505040002 | 6 | 305 | 3.2 | 8.0 | 0.00 | 0.00 | 0.00 | 1 | 1014.6 |
| 20260505034558 | 6 | 302 | 1.6 | 6.4 | 0.00 | 0.00 | 0.00 | 1 | 1014.6 |
| 20260505033054 | 6 | 309 | 3.2 | 6.4 | 0.00 | 0.00 | 0.00 | 1 | 1014.6 |
| 20260505031605 | 6 | 292 | 3.2 | 6.4 | 0.00 | 0.00 | 0.00 | 1 | 1014.7 |
| 20260505030045 | 7 | 276 | 0.0 | 4.8 | 0.00 | 0.00 | 0.00 | 1 | 1014.8 |
| 20260505024542 | 7 | 283 | 4.8 | 9.7 | 0.00 | 0.00 | 0.00 | 2 | 1014.7 |
| 20260505023037 | 7 | 291 | 3.2 | 8.0 | 0.00 | 0.00 | 0.00 | 4 | 1014.7 |
| 20260505021532 | 7 | 261 | 3.2 | 8.0 | 0.00 | 0.00 | 0.00 | 10 | 1014.7 |
| 20260505020032 | 8 | 299 | 4.8 | 11.3 | 0.00 | 0.00 | 0.00 | 10 | 1014.7 |
| 20260505014528 | 8 | 246 | 4.8 | 14.5 | 0.00 | 0.00 | 0.00 | 9 | 1014.7 |
| 20260505013019 | 8 | 343 | 3.2 | 14.5 | 0.00 | 0.00 | 0.00 | 1 | 1014.7 |
| 20260505011528 | 8 | 295 | 4.8 | 12.9 | 0.00 | 0.00 | 0.00 | 1 | 1014.8 |
| 20260505010011 | 8 | 296 | 9.7 | 14.5 | 0.00 | 0.00 | 0.00 | 1 | 1014.8 |
| 20260505004513 | 8 | 323 | 11.3 | 19.3 | 0.00 | 0.00 | 0.00 | 1 | 1014.9 |
| 20260505003002 | 9 | 287 | 6.4 | 12.9 | 0.00 | 0.00 | 0.00 | 1 | 1014.8 |
| 20260505001600 | 9 | 291 | 4.8 | 14.5 | 0.00 | 0.00 | 0.00 | 1 | 1014.9 |
| 20260505000112 | 10 | 306 | 4.8 | 11.3 | 0.00 | 0.00 | 0.00 | 1 | 1014.9 |
| 20260504234549 | 10 | 337 | 0.0 | 4.8 | 0.00 | 0.00 | 0.00 | 1 | 1014.9 |
| 20260504233045 | 11 | 352 | 1.6 | 6.4 | 0.00 | 0.00 | 0.00 | 1 | 1014.9 |
| 20260504231540 | 11 | 26 | 1.6 | 4.8 | 0.00 | 0.00 | 0.00 | 1 | 1014.9 |
| 20260504230040 | 11 | 296 | 0.0 | 9.7 | 0.00 | 0.00 | 0.00 | 1 | 1014.8 |
| 20260504224531 | 11 | 296 | 0.0 | 4.8 | 0.00 | 0.00 | 0.00 | 1 | 1014.9 |
| 20260504223028 | 11 | 321 | 3.2 | 9.7 | 0.00 | 0.00 | 0.00 | 1 | 1015.1 |
| 20260504221522 | 11 | 322 | 3.2 | 6.4 | 0.00 | 0.00 | 0.00 | 1 | 1015.0 |
| 20260504220019 | 11 | 311 | 1.6 | 4.8 | 0.00 | 0.00 | 0.00 | 1 | 1015.0 |
| 20260504214514 | 12 | 301 | 6.4 | 9.7 | 0.00 | 0.00 | 0.00 | 1 | 1015.1 |
| 20260504213010 | 12 | 309 | 0.0 | 4.8 | 0.00 | 0.00 | 0.00 | 1 | 1015.1 |
| 20260504211505 | 12 | 325 | 0.0 | 1.6 | 0.00 | 0.00 | 0.00 | 1 | 1015.0 |
| 20260504210001 | 12 | 325 | 0.0 | 0.0 | 0.00 | 0.00 | 0.00 | 1 | 1015.0 |
| 20260504204603 | 12 | 325 | 0.0 | 0.0 | 0.00 | 0.00 | 0.00 | 1 | 1014.8 |
| 20260504203102 | 12 | 325 | 0.0 | 3.2 | 0.00 | 0.00 | 0.00 | 1 | 1014.8 |
| 20260504201549 | 12 | 325 | 0.0 | 1.6 | 0.00 | 0.00 | 0.00 | 1 | 1014.6 |
| 20260504200044 | 12 | 300 | 3.2 | 6.4 | 0.00 | 0.00 | 0.00 | 1 | 1014.6 |
| 20260504194540 | 12 | 332 | 0.0 | 3.2 | 0.00 | 0.00 | 0.00 | 1 | 1014.6 |
| 20260504193035 | 12 | 334 | 0.0 | 4.8 | 0.00 | 0.00 | 0.00 | 1 | 1014.4 |
| 20260504191531 | 12 | 334 | 0.0 | 4.8 | 0.00 | 0.00 | 0.00 | 1 | 1014.3 |
| 20260504190027 | 12 | 332 | 0.0 | 3.2 | 0.00 | 0.00 | 0.00 | 1 | 1014.4 |
| 20260504184522 | 12 | 335 | 1.6 | 11.3 | 0.00 | 0.00 | 0.00 | 1 | 1014.3 |
| 20260504183017 | 12 | 310 | 3.2 | 4.8 | 0.00 | 0.00 | 0.00 | 1 | 1014.3 |
| 20260504181513 | 12 | 322 | 3.2 | 6.4 | 0.00 | 0.00 | 0.00 | 1 | 1014.2 |
| 20260504180011 | 12 | 343 | 0.0 | 6.4 | 0.00 | 0.00 | 0.00 | 1 | 1014.1 |
| 20260504174504 | 12 | 270 | 0.0 | 4.8 | 0.00 | 0.00 | 0.00 | 1 | 1014.1 |
| 20260504173100 | 12 | 291 | 1.6 | 12.9 | 0.00 | 0.00 | 0.00 | 1 | 1014.1 |
| 20260504171557 | 13 | 28 | 3.2 | 14.5 | 0.00 | 0.00 | 0.00 | 4 | 1014.1 |